User: anonymous   Login
Location: Larrial
(48.2758°N, 4.5331°W)
Time: 17:03:48
(UTC+00:00)
Language:

CUTE 1.7 + AOD 2 - Orbit

View from above orbital plane
View from above orbital plane
View from above satellite
View from above satellite

Ground track
Ground track

The orbit data is extracted from the following two-line orbital elements,

1 32785U 08021C   21337.16252572  .00000635  00000-0  73243-4 0  9999
2 32785  97.6326 309.6628 0013332 157.9779 202.2014 14.88913608737344
Epoch (UTC): 03 December 2021 03:54:02
Eccentricity: 0.0013332
inclination: 97.6326°
perigee height: 592 km
apogee height: 610 km
right ascension of ascending node: 309.6628°
argument of perigee: 157.9779°
revolutions per day: 14.88913608
mean anomaly at epoch: 202.2014°
orbit number at epoch: 73734

The dashed part of the orbit path shows where the satellite is in the earth's shadow,  

DLR